"startDT [UTC]","vpos","CH4 [ppm]","stdev(CH4) [ppm]","CO2 [ppm]","stdev(CO2) [ppm]","H2O [ppm]","stdev(H2O)","p_LGR [torr]","T_LGR [C]","mt1_LGR [us]","mt2_LGR [us]","T_ECpre [C]","T_EC1 [C]","T_EC2 [C]","p_inlet [hPa]","p_in [hPa]","p_out [hPa]","T_inlet [C]","RH_inlet [%]","dwpt_inlet [C]","T_vent [C]","RH_vent [%]","dwpt_vent [C]","flow_vent [l min-1]","flow_inlet [l min-1]","dwpt_sample [C]","T_room [C]"
2012-08-18 00:00:00,0.0,2.0004,0.0009,389.40,0.33,276.3,29.2,138.03,31.87,24.66,36.54,0.94,-25.85,15.46,-50,76,-923,26.7,28.7,7.0,26.5,1.6,-29.3,5.73,2.52,-26.6,30.5
2012-08-18 00:01:00,0.0,1.9986,0.0012,389.39,0.31,272.5,30.3,138.03,31.86,24.66,36.54,0.94,-25.84,15.62,-50,76,-923,26.7,28.7,7.1,26.5,1.6,-29.3,5.73,2.52,-26.6,30.5
2012-08-18 00:02:00,0.0,1.9961,0.0009,389.30,0.27,279.0,29.9,138.03,31.87,24.66,36.54,0.94,-25.84,15.76,-50,76,-923,26.7,28.7,7.1,26.6,1.5,-29.3,5.73,2.52,-26.6,30.5
2012-08-18 00:03:00,0.0,1.9965,0.0009,389.31,0.30,278.0,25.8,138.03,31.87,24.66,36.54,0.95,-25.83,15.90,-50,76,-923,26.7,28.7,7.1,26.5,1.6,-29.3,5.73,2.52,-26.6,30.5
2012-08-18 00:04:00,0.0,1.9968,0.0009,389.41,0.31,278.3,29.7,138.03,31.86,24.66,36.54,0.95,-25.83,16.04,-50,76,-923,26.7,28.7,7.1,26.6,1.6,-29.3,5.73,2.52,-26.6,30.5
2012-08-18 00:05:00,0.0,1.9970,0.0009,389.40,0.31,271.3,27.2,138.03,31.86,24.66,36.54,0.95,-25.82,16.17,-50,76,-923,26.7,28.8,7.1,26.5,1.6,-29.3,5.73,2.52,-26.6,30.5
2012-08-18 00:06:00,0.0,1.9974,0.0009,389.47,0.32,282.9,27.4,138.03,31.87,24.66,36.53,0.95,-25.82,16.30,-50,76,-923,26.7,28.8,7.1,26.5,1.6,-29.3,5.73,2.52,-26.6,30.5
2012-08-18 00:07:00,0.0,1.9967,0.0011,389.38,0.27,275.7,29.3,138.03,31.87,24.66,36.54,0.94,-25.82,16.42,-50,76,-923,26.7,28.8,7.1,26.6,1.6,-29.3,5.73,2.52,-26.6,30.5
2012-08-18 00:08:00,0.0,1.9965,0.0009,389.38,0.33,273.7,24.5,138.03,31.87,24.65,36.54,0.94,-25.81,16.53,-50,76,-923,26.7,28.8,7.1,26.6,1.6,-29.3,5.73,2.52,-26.6,30.5
2012-08-18 00:09:00,0.0,1.9962,0.0008,389.31,0.32,271.1,29.9,138.03,31.87,24.66,36.54,0.92,-25.81,16.64,-50,76,-923,26.7,28.8,7.1,26.5,1.6,-29.3,5.73,2.52,-26.6,30.6
2012-08-18 00:10:00,0.0,1.9964,0.0009,389.31,0.32,273.8,33.6,138.03,31.87,24.66,36.54,0.94,-25.80,16.75,-50,76,-923,26.7,28.8,7.1,26.6,1.6,-29.3,5.73,2.52,-26.6,30.6
2012-08-18 00:11:00,0.0,1.9962,0.0008,389.31,0.27,273.6,28.1,138.03,31.87,24.66,36.54,0.95,-25.80,16.85,-50,76,-923,26.7,28.8,7.1,26.5,1.6,-29.3,5.73,2.53,-26.6,30.6
2012-08-18 00:12:00,0.0,1.9967,0.0008,389.47,0.28,277.6,31.2,138.03,31.87,24.66,36.54,0.92,-25.80,16.94,-50,76,-923,26.7,28.8,7.1,26.5,1.5,-29.4,5.73,2.53,-26.6,30.6
2012-08-18 00:13:00,0.0,1.9974,0.0011,389.53,0.28,275.5,28.0,138.03,31.87,24.66,36.54,0.93,-25.79,17.03,-50,76,-923,26.7,28.8,7.1,26.5,1.6,-29.3,5.73,2.53,-26.6,30.5
2012-08-18 00:14:00,0.0,1.9978,0.0008,389.56,0.27,276.0,32.2,138.03,31.87,24.66,36.54,0.93,-25.78,17.13,-50,76,-923,26.7,28.8,7.1,26.5,1.6,-29.3,5.73,2.53,-26.6,30.4
2012-08-18 00:15:00,0.0,1.9973,0.0008,389.45,0.24,274.1,24.8,138.03,31.87,24.66,36.54,0.91,-25.78,17.21,-50,76,-923,26.7,28.8,7.1,26.5,1.5,-29.4,5.73,2.53,-26.6,30.5
2012-08-18 00:16:00,0.0,1.9975,0.0009,389.44,0.28,278.7,27.5,138.04,31.87,24.66,36.54,0.94,-25.78,17.29,-50,76,-923,26.7,28.8,7.1,26.5,1.5,-29.4,5.73,2.53,-26.6,30.5
2012-08-18 00:17:00,0.0,1.9976,0.0011,389.38,0.27,272.7,32.4,138.04,31.87,24.66,36.54,0.92,-25.78,17.36,-50,76,-923,26.7,28.8,7.1,26.5,1.5,-29.4,5.73,2.53,-26.6,30.4
2012-08-18 00:18:00,0.0,1.9979,0.0010,389.45,0.30,279.1,30.7,138.03,31.88,24.66,36.54,0.93,-25.78,17.43,-50,76,-923,26.7,28.8,7.1,26.5,1.5,-29.5,5.73,2.52,-26.6,30.5
2012-08-18 00:19:00,0.0,1.9980,0.0010,389.45,0.28,274.4,30.7,138.03,31.88,24.66,36.55,0.92,-25.77,17.51,-50,76,-923,26.7,28.8,7.1,26.6,1.5,-29.5,5.73,2.52,-26.6,30.4
2012-08-18 00:20:00,0.0,1.9987,0.0009,389.50,0.35,275.5,25.2,138.03,31.88,24.66,36.54,0.93,-25.77,17.57,-50,76,-923,26.7,28.9,7.1,26.5,1.5,-29.5,5.73,2.52,-26.6,30.5
2012-08-18 00:21:00,0.0,1.9991,0.0008,389.35,0.26,271.8,30.3,138.03,31.88,24.66,36.55,0.94,-25.77,17.64,-50,76,-923,26.7,28.8,7.1,26.6,1.5,-29.5,5.73,2.52,-26.6,30.4
2012-08-18 00:22:00,0.0,1.9990,0.0009,389.44,0.29,269.5,27.6,138.03,31.88,24.66,36.54,0.92,-25.77,17.70,-50,76,-923,26.7,28.9,7.1,26.6,1.5,-29.5,5.73,2.52,-26.6,30.4
2012-08-18 00:23:00,0.0,1.9991,0.0010,389.58,0.28,264.4,30.8,138.03,31.88,24.66,36.54,0.95,-25.77,17.76,-50,76,-923,26.7,28.9,7.1,26.5,1.5,-29.6,5.73,2.52,-26.7,30.4
2012-08-18 00:24:00,0.0,1.9992,0.0009,389.42,0.29,271.4,28.8,138.03,31.88,24.66,36.54,0.95,-25.76,17.82,-50,76,-923,26.7,28.9,7.2,26.5,1.5,-29.5,5.73,2.52,-26.7,30.5
2012-08-18 00:25:00,0.0,1.9984,0.0008,389.40,0.26,265.7,27.1,138.04,31.88,24.66,36.54,0.94,-25.76,17.87,-50,76,-923,26.7,28.9,7.2,26.5,1.5,-29.5,5.73,2.52,-26.7,30.4
2012-08-18 00:26:00,0.0,1.9983,0.0010,389.32,0.31,267.0,27.0,138.03,31.88,24.66,36.54,0.94,-25.76,17.93,-50,76,-923,26.7,28.9,7.2,26.5,1.5,-29.5,5.73,2.52,-26.7,30.4
2012-08-18 00:27:00,0.0,1.9984,0.0010,389.35,0.30,272.3,36.6,138.03,31.88,24.66,36.54,0.96,-25.75,17.98,-50,76,-923,26.7,29.0,7.2,26.5,1.5,-29.5,5.73,2.53,-26.7,30.4
2012-08-18 00:28:00,0.0,1.9981,0.0009,389.35,0.25,270.2,30.2,138.03,31.88,24.66,36.54,0.94,-25.75,18.02,-50,76,-923,26.7,29.0,7.2,26.5,1.5,-29.5,5.73,2.53,-26.7,30.4
2012-08-18 00:29:00,0.0,1.9983,0.0009,389.30,0.28,269.7,31.5,138.04,31.88,24.66,36.54,0.94,-25.75,18.07,-50,76,-923,26.7,29.0,7.2,26.6,1.5,-29.5,5.73,2.53,-26.7,30.4
2012-08-18 00:30:00,0.0,1.9981,0.0009,389.21,0.28,269.8,32.4,138.03,31.88,24.66,36.54,0.94,-25.75,18.11,-50,76,-923,26.7,29.0,7.2,26.5,1.5,-29.5,5.73,2.52,-26.7,30.5
2012-08-18 00:31:00,0.0,1.9978,0.0009,389.19,0.30,270.7,26.8,138.03,31.88,24.66,36.54,0.94,-25.75,18.15,-50,76,-923,26.7,29.0,7.2,26.5,1.5,-29.5,5.73,2.53,-26.7,30.5
2012-08-18 00:32:00,0.0,1.9978,0.0009,389.23,0.28,264.0,24.5,138.04,31.88,24.66,36.54,0.95,-25.75,18.19,-50,76,-923,26.7,29.0,7.2,26.5,1.5,-29.6,5.73,2.53,-26.7,30.5
2012-08-18 00:33:00,0.0,1.9978,0.0008,389.21,0.28,265.1,33.5,138.04,31.88,24.66,36.54,0.95,-25.75,18.23,-50,76,-923,26.7,29.1,7.2,26.5,1.5,-29.5,5.73,2.53,-26.7,30.5
2012-08-18 00:34:00,0.0,1.9979,0.0010,389.25,0.30,271.3,30.8,138.04,31.88,24.66,36.54,0.94,-25.74,18.27,-50,76,-923,26.7,29.1,7.2,26.5,1.5,-29.5,5.73,2.53,-26.7,30.5
2012-08-18 00:35:00,0.0,1.9984,0.0009,389.10,0.35,267.9,31.7,138.03,31.88,24.66,36.54,0.95,-25.74,18.31,-50,76,-923,26.7,29.0,7.2,26.5,1.5,-29.5,5.73,2.53,-26.7,30.4
2012-08-18 00:36:00,0.0,1.9982,0.0008,389.11,0.30,274.1,32.0,138.04,31.88,24.66,36.54,0.95,-25.74,18.34,-50,76,-923,26.7,29.0,7.2,26.5,1.5,-29.5,5.73,2.52,-26.7,30.4
2012-08-18 00:37:00,0.0,1.9987,0.0013,389.12,0.29,269.0,24.9,138.03,31.89,24.66,36.54,0.95,-25.74,18.38,-50,76,-923,26.7,29.0,7.2,26.5,1.5,-29.5,5.73,2.52,-26.7,30.4
2012-08-18 00:38:00,0.0,1.9988,0.0008,389.08,0.28,269.7,28.4,138.04,31.88,24.66,36.54,0.95,-25.74,18.41,-50,76,-923,26.7,29.1,7.2,26.5,1.5,-29.6,5.73,2.52,-26.7,30.4
2012-08-18 00:39:00,0.0,1.9991,0.0008,389.14,0.28,274.2,29.4,138.04,31.88,24.66,36.54,0.95,-25.74,18.43,-50,76,-923,26.7,29.1,7.2,26.5,1.5,-29.5,5.73,2.52,-26.7,30.4
2012-08-18 00:40:00,0.0,1.9991,0.0011,389.17,0.31,268.7,29.7,138.04,31.89,24.66,36.54,0.94,-25.74,18.46,-50,76,-923,26.7,29.1,7.2,26.5,1.5,-29.5,5.73,2.52,-26.7,30.4
2012-08-18 00:41:00,0.0,1.9986,0.0008,389.29,0.27,258.8,29.5,138.04,31.89,24.66,36.54,0.95,-25.73,18.49,-50,76,-923,26.7,29.1,7.2,26.5,1.5,-29.5,5.73,2.52,-26.7,30.4
2012-08-18 00:42:00,0.0,1.9984,0.0009,389.24,0.29,268.1,29.6,138.04,31.89,24.66,36.54,1.15,-44.11,-3.35,-50,76,-923,26.7,29.1,7.2,26.5,1.5,-29.5,5.42,2.48,-30.9,30.4
2012-08-18 00:43:00,0.0,1.9985,0.0010,389.20,0.30,268.5,26.3,138.03,31.89,24.66,36.55,0.94,-25.73,18.54,-50,76,-923,26.7,29.1,7.2,26.5,1.5,-29.5,5.73,2.52,-26.7,30.4
2012-08-18 00:44:00,0.0,1.9987,0.0007,389.19,0.28,272.9,32.8,138.04,31.89,24.66,36.54,0.95,-25.72,18.57,-50,76,-923,26.7,29.1,7.3,26.5,1.5,-29.5,5.73,2.52,-26.7,30.4
2012-08-18 00:45:00,0.0,1.9986,0.0010,389.30,0.28,262.1,30.0,138.03,31.89,24.66,36.53,0.94,-25.72,18.59,-50,76,-923,26.7,29.1,7.3,26.5,1.5,-29.5,5.73,2.52,-26.7,30.3
2012-08-18 00:46:00,0.0,1.9983,0.0007,389.24,0.28,269.4,32.4,138.03,31.89,24.66,36.54,0.94,-25.73,18.61,-50,76,-923,26.7,29.1,7.3,26.5,1.5,-29.5,5.73,2.52,-26.7,30.4
2012-08-18 00:47:00,0.0,1.9982,0.0009,389.26,0.30,268.9,28.1,138.03,31.89,24.66,36.54,0.94,-25.73,18.63,-50,76,-923,26.7,29.2,7.3,26.5,1.5,-29.5,5.73,2.53,-26.7,30.5
2012-08-18 00:48:00,0.0,1.9975,0.0008,389.24,0.31,266.0,27.6,138.03,31.89,24.66,36.54,0.95,-25.72,18.65,-50,76,-923,26.7,29.2,7.3,26.5,1.5,-29.5,5.73,2.53,-26.7,30.4
2012-08-18 00:49:00,0.0,1.9977,0.0009,389.23,0.30,261.7,24.4,138.04,31.89,24.66,36.54,0.94,-25.73,18.67,-50,76,-923,26.7,29.3,7.3,26.5,1.5,-29.5,5.73,2.53,-26.7,30.4
2012-08-18 00:50:00,0.0,1.9980,0.0009,389.22,0.27,265.8,24.2,138.03,31.89,24.66,36.54,0.93,-25.72,18.69,-50,76,-923,26.7,29.3,7.3,26.5,1.5,-29.5,5.73,2.53,-26.7,30.4
2012-08-18 00:51:00,0.0,1.9979,0.0007,389.19,0.27,267.2,25.5,138.04,31.89,24.66,36.54,0.92,-25.73,18.70,-50,76,-923,26.7,29.3,7.3,26.5,1.5,-29.5,5.73,2.53,-26.7,30.4
2012-08-18 00:52:00,0.0,1.9978,0.0008,389.22,0.29,256.8,28.3,138.04,31.89,24.66,36.54,0.92,-25.72,18.72,-50,76,-923,26.7,29.3,7.4,26.5,1.5,-29.5,5.73,2.53,-26.7,30.4
2012-08-18 00:53:00,0.0,1.9975,0.0010,389.21,0.22,260.1,20.3,138.03,31.89,24.66,36.54,0.93,-25.72,18.73,-50,76,-923,26.7,29.4,7.4,26.6,1.5,-29.5,5.73,2.53,-26.7,30.4
2012-08-18 00:54:00,0.0,1.9971,0.0010,389.25,0.27,264.1,30.9,138.04,31.89,24.66,36.54,0.94,-25.72,18.75,-50,76,-923,26.7,29.4,7.4,26.5,1.5,-29.5,5.73,2.52,-26.7,30.4
2012-08-18 00:55:00,0.0,1.9969,0.0008,389.18,0.29,262.4,27.0,138.03,31.89,24.66,36.54,0.94,-25.71,18.76,-50,76,-923,26.7,29.4,7.4,26.6,1.5,-29.5,5.73,2.52,-26.7,30.4
2012-08-18 00:56:00,0.0,1.9969,0.0009,389.13,0.30,254.5,27.9,138.04,31.89,24.66,36.54,0.93,-25.72,18.77,-50,76,-923,26.7,29.5,7.4,26.5,1.5,-29.5,5.73,2.52,-26.7,30.4
2012-08-18 00:57:00,0.0,1.9971,0.0009,389.12,0.31,265.8,26.5,138.03,31.89,24.66,36.54,0.91,-25.72,18.79,-50,76,-923,26.7,29.5,7.4,26.5,1.5,-29.5,5.73,2.52,-26.7,30.5
2012-08-18 00:58:00,0.0,1.9972,0.0008,389.11,0.24,268.7,27.2,138.03,31.89,24.66,36.53,1.16,-25.71,18.09,-50,76,-923,26.7,29.5,7.4,26.5,1.5,-29.5,5.73,2.52,-26.7,30.5
2012-08-18 00:59:00,0.0,1.9976,0.0008,389.21,0.29,267.8,24.3,138.04,31.90,24.66,36.54,1.17,-25.70,16.03,-50,76,-923,26.7,29.6,7.5,26.5,1.5,-29.5,5.73,2.52,-26.7,30.5
2012-08-18 01:00:00,0.0,1.9979,0.0008,389.18,0.27,264.2,32.1,138.04,31.90,24.66,36.54,1.00,-25.73,13.67,-50,76,-923,26.7,29.6,7.5,26.5,1.5,-29.5,5.73,2.52,-26.7,30.4
2012-08-18 01:01:00,0.0,1.9984,0.0009,389.11,0.29,264.3,28.3,138.03,31.89,24.66,36.54,0.98,-25.79,11.29,-50,76,-923,26.7,29.6,7.5,26.6,1.5,-29.5,5.73,2.52,-26.8,30.4
2012-08-18 01:02:00,0.0,1.9980,0.0010,389.18,0.29,269.3,30.5,138.04,31.89,24.66,36.54,1.09,-25.83,8.96,-50,76,-923,26.7,29.6,7.5,26.5,1.5,-29.5,5.73,2.52,-26.8,30.4
2012-08-18 01:03:00,0.0,1.9981,0.0010,389.19,0.25,259.7,30.3,138.03,31.89,24.66,36.54,1.05,-25.85,6.74,-50,76,-923,26.7,29.7,7.5,26.5,1.5,-29.7,5.73,2.53,-26.8,30.4
2012-08-18 01:04:00,0.0,1.9992,0.0009,389.30,0.33,262.0,29.1,138.04,31.89,24.66,36.54,1.00,-25.85,4.62,-50,76,-923,26.7,29.7,7.5,26.5,1.5,-29.7,5.73,2.53,-26.8,30.3
2012-08-18 01:05:00,0.0,1.9989,0.0010,389.22,0.30,259.2,27.9,138.04,31.89,24.66,36.54,1.10,-25.85,2.62,-50,76,-923,26.7,29.7,7.5,26.5,1.5,-29.7,5.73,2.52,-26.8,30.3
2012-08-18 01:06:00,0.0,1.9985,0.0009,389.12,0.27,260.9,31.0,138.04,31.89,24.66,36.53,1.03,-25.85,0.72,-50,76,-923,26.7,29.8,7.5,26.5,1.5,-29.7,5.73,2.51,-26.9,30.3
2012-08-18 01:07:00,0.0,1.9985,0.0010,389.22,0.29,257.5,28.9,138.04,31.89,24.66,36.54,0.99,-25.85,-1.08,-50,76,-923,26.7,29.8,7.6,26.5,1.5,-29.7,5.73,2.51,-26.9,30.4
2012-08-18 01:08:00,0.0,1.9996,0.0012,389.23,0.29,247.5,28.2,138.04,31.89,24.66,36.54,1.10,-25.85,-2.57,-50,76,-923,26.7,29.8,7.6,26.5,1.5,-29.7,5.73,2.51,-26.9,30.4
2012-08-18 01:09:00,0.0,2.0010,0.0011,389.34,0.26,255.1,29.5,138.04,31.89,24.66,36.54,1.01,-25.86,-3.99,-51,76,-923,26.7,29.9,7.6,26.5,1.5,-29.7,5.73,2.52,-26.8,30.4
2012-08-18 01:10:00,0.0,2.0011,0.0009,389.43,0.31,254.7,35.1,138.04,31.89,24.66,36.54,1.00,-25.86,-5.30,-51,76,-923,26.7,29.9,7.6,26.5,1.5,-29.7,5.73,2.52,-26.9,30.3
2012-08-18 01:11:00,0.0,2.0007,0.0009,389.34,0.31,249.0,28.3,138.04,31.89,24.66,36.54,1.07,-25.86,-6.68,-50,76,-923,26.7,29.9,7.6,26.5,1.5,-29.7,5.73,2.53,-26.9,30.3
2012-08-18 01:12:00,0.0,2.0004,0.0009,389.17,0.28,248.4,26.1,138.04,31.89,24.66,36.55,1.04,-25.86,-7.86,-50,76,-923,26.7,29.9,7.6,26.5,1.5,-29.8,5.73,2.53,-26.9,30.4
2012-08-18 01:13:00,0.0,1.9995,0.0008,389.23,0.25,252.1,30.2,138.04,31.89,24.66,36.54,0.98,-25.87,-9.01,-50,76,-923,26.7,30.0,7.6,26.5,1.5,-29.7,5.73,2.51,-26.9,30.4
2012-08-18 01:14:00,0.0,1.9995,0.0009,389.24,0.29,252.0,28.6,138.04,31.88,24.66,36.54,1.07,-25.87,-10.11,-50,76,-923,26.7,30.0,7.7,26.5,1.5,-29.7,5.73,2.51,-26.9,30.4
2012-08-18 01:15:00,0.0,1.9986,0.0009,389.19,0.28,259.6,30.2,138.04,31.88,24.66,36.54,1.06,-25.88,-11.19,-51,76,-923,26.7,30.0,7.6,26.5,1.5,-29.8,5.73,2.50,-26.9,30.4
2012-08-18 01:16:00,0.0,1.9982,0.0009,389.11,0.27,262.0,28.9,138.04,31.88,24.66,36.55,0.97,-25.88,-12.22,-51,76,-923,26.7,30.0,7.7,26.5,1.5,-29.8,5.73,2.51,-26.9,30.3
2012-08-18 01:17:00,0.0,2.0003,0.0013,389.28,0.34,250.3,31.9,138.04,31.88,24.66,36.55,1.03,-25.88,-13.25,-50,76,-923,26.7,30.0,7.7,26.5,1.5,-29.8,5.73,2.51,-26.9,30.3
2012-08-18 01:18:00,0.0,2.0018,0.0009,389.46,0.33,260.4,25.0,138.04,31.88,24.66,36.54,1.06,-25.89,-14.18,-50,76,-923,26.7,30.0,7.6,26.5,1.5,-29.8,5.73,2.52,-27.0,30.3
2012-08-18 01:19:00,0.0,2.0025,0.0009,389.52,0.23,257.0,33.3,138.04,31.88,24.66,36.54,1.03,-25.90,-15.11,-50,76,-923,26.7,29.9,7.6,26.5,1.5,-29.7,5.73,2.53,-27.0,30.3
2012-08-18 01:20:00,1.0,1.9237,0.0436,380.39,5.08,296.8,41.1,138.04,31.88,24.66,36.55,0.99,-25.91,-16.02,-47,-2,-923,26.7,30.0,7.7,26.5,1.4,-30.1,5.73,2.38,-26.6,30.4
2012-08-18 01:21:00,1.0,1.8830,0.0008,375.71,0.26,334.4,25.2,138.04,31.87,24.66,36.55,1.04,-25.91,-16.78,-47,-2,-923,26.7,30.0,7.7,26.5,1.4,-30.3,5.73,2.37,-26.6,30.4
2012-08-18 01:22:00,1.0,1.8832,0.0007,375.71,0.31,308.7,29.0,138.04,31.87,24.66,36.55,1.07,-25.93,-17.55,-47,-2,-923,26.7,30.0,7.6,26.5,1.4,-30.3,5.73,2.39,-26.9,30.5
2012-08-18 01:23:00,1.0,1.8829,0.0010,375.67,0.25,282.0,32.6,138.04,31.87,24.66,36.55,1.00,-25.94,-18.19,-47,-2,-923,26.7,30.0,7.6,26.5,1.4,-30.3,5.73,2.39,-27.3,30.4
2012-08-18 01:24:00,1.0,1.8828,0.0008,375.71,0.26,255.5,33.3,138.04,31.87,24.66,36.55,0.97,-25.95,-18.82,-47,-2,-923,26.7,29.9,7.6,26.5,1.4,-30.3,5.73,2.39,-27.8,30.4
2012-08-18 01:25:00,0.0,1.9658,0.0415,385.25,4.71,148.2,55.0,138.04,31.87,24.66,36.54,1.05,-25.97,-19.50,-50,76,-923,26.7,29.8,7.6,26.5,1.4,-30.3,5.73,2.52,-29.4,30.4
2012-08-18 01:26:00,0.0,2.0025,0.0008,389.46,0.32,154.6,29.8,138.04,31.87,24.66,36.54,1.07,-25.98,-20.07,-50,76,-923,26.7,29.8,7.5,26.5,1.4,-30.1,5.73,2.50,-28.5,30.3
2012-08-18 01:27:00,0.0,2.0026,0.0010,389.44,0.31,185.7,29.0,138.04,31.87,24.66,36.54,0.98,-25.99,-20.64,-50,77,-923,26.7,29.8,7.5,26.5,1.5,-30.0,5.73,2.51,-28.0,30.4
2012-08-18 01:28:00,0.0,2.0016,0.0008,389.41,0.26,201.8,28.5,138.04,31.87,24.66,36.54,0.97,-26.01,-21.17,-51,77,-923,26.7,29.8,7.6,26.5,1.5,-30.0,5.73,2.51,-27.8,30.4
2012-08-18 01:29:00,0.0,2.0018,0.0010,389.39,0.28,213.8,30.6,138.04,31.87,24.66,36.54,1.05,-26.02,-21.67,-51,77,-923,26.7,29.8,7.6,26.5,1.5,-29.9,5.73,2.52,-27.6,30.4
2012-08-18 01:30:00,0.0,2.0009,0.0010,389.38,0.27,221.8,30.5,138.04,31.86,24.66,36.54,1.07,-26.03,-22.14,-50,77,-923,26.7,29.8,7.6,26.5,1.5,-29.9,5.73,2.52,-27.5,30.4
2012-08-18 01:31:00,0.0,2.0008,0.0008,389.38,0.26,227.7,29.5,138.04,31.86,24.66,36.54,0.97,-26.04,-22.58,-50,77,-923,26.7,29.8,7.6,26.5,1.5,-29.9,5.73,2.52,-27.5,30.4
2012-08-18 01:32:00,0.0,2.0001,0.0009,389.32,0.30,237.4,29.4,138.04,31.86,24.66,36.54,0.97,-26.05,-23.00,-50,76,-923,26.7,29.8,7.6,26.5,1.5,-29.9,5.73,2.52,-27.4,30.3
2012-08-18 01:33:00,0.0,1.9993,0.0009,389.14,0.26,227.9,29.1,138.04,31.86,24.66,36.55,1.04,-26.06,-23.40,-51,76,-923,26.7,29.8,7.6,26.5,1.5,-29.9,5.73,2.50,-27.4,30.3
2012-08-18 01:34:00,0.0,1.9993,0.0009,389.24,0.30,226.8,28.1,138.04,31.86,24.65,36.54,1.07,-26.07,-23.77,-50,76,-923,26.7,29.8,7.6,26.5,1.5,-29.9,5.73,2.50,-27.3,30.3
2012-08-18 01:35:00,0.0,1.9991,0.0009,389.33,0.33,235.5,30.2,138.04,31.85,24.66,36.54,1.00,-26.08,-24.12,-50,76,-923,26.7,29.8,7.6,26.5,1.5,-29.9,5.73,2.51,-27.3,30.4
2012-08-18 01:36:00,0.0,1.9991,0.0008,389.33,0.27,227.8,30.3,138.04,31.85,24.66,36.54,0.96,-26.09,-24.45,-50,76,-923,26.7,29.9,7.6,26.5,1.5,-29.9,5.73,2.52,-27.3,30.3
2012-08-18 01:37:00,0.0,1.9995,0.0009,389.38,0.31,232.3,28.9,138.04,31.85,24.66,36.54,1.02,-26.09,-24.76,-51,77,-923,26.7,29.8,7.6,26.5,1.5,-29.9,5.73,2.52,-27.3,30.3
2012-08-18 01:38:00,0.0,1.9998,0.0008,389.43,0.28,239.7,29.6,138.04,31.85,24.66,36.54,1.05,-26.10,-25.05,-51,77,-923,26.7,29.9,7.6,26.5,1.5,-29.9,5.73,2.52,-27.3,30.3
2012-08-18 01:39:00,0.0,1.9994,0.0008,389.35,0.28,231.2,25.6,138.04,31.85,24.66,36.54,1.03,-26.11,-25.33,-51,76,-923,26.7,29.9,7.6,26.5,1.5,-29.9,5.73,2.52,-27.3,30.3
2012-08-18 01:40:00,0.0,1.9995,0.0009,389.40,0.24,241.9,27.0,138.04,31.85,24.66,36.54,0.97,-26.12,-25.59,-50,76,-923,26.7,29.9,7.6,26.5,1.5,-29.9,5.73,2.50,-27.3,30.3
2012-08-18 01:41:00,0.0,1.9995,0.0008,389.31,0.30,241.0,33.6,138.04,31.85,24.66,36.54,0.98,-26.13,-25.83,-50,76,-923,26.7,30.0,7.7,26.5,1.5,-29.9,5.73,2.51,-27.3,30.3
2012-08-18 01:42:00,0.0,1.9997,0.0010,389.35,0.33,228.5,30.7,138.04,31.85,24.66,36.54,1.05,-26.14,-26.06,-50,76,-923,26.7,30.1,7.7,26.5,1.5,-29.9,5.73,2.51,-27.3,30.3
2012-08-18 01:43:00,0.0,2.0001,0.0009,389.40,0.30,247.0,30.9,138.04,31.85,24.66,36.54,0.95,-26.15,-26.05,-51,77,-923,26.7,30.2,7.7,26.5,1.4,-30.1,5.73,2.52,-27.3,30.3
2012-08-18 01:44:00,0.0,2.0000,0.0009,389.48,0.27,233.4,28.3,138.04,31.85,24.66,36.54,1.06,-26.16,-25.91,-51,77,-923,26.7,30.2,7.8,26.5,1.4,-30.1,5.73,2.52,-27.3,30.2
2012-08-18 01:45:00,0.0,1.9999,0.0010,389.45,0.26,242.3,30.1,138.04,31.85,24.66,36.54,0.99,-26.17,-26.06,-50,77,-923,26.7,30.3,7.8,26.5,1.4,-30.1,5.73,2.52,-27.3,30.2
2012-08-18 01:46:00,0.0,2.0009,0.0010,389.59,0.29,239.7,25.7,138.04,31.85,24.66,36.54,0.90,-26.18,-26.14,-50,76,-923,26.7,30.4,7.8,26.5,1.4,-30.1,5.73,2.52,-27.3,30.1
2012-08-18 01:47:00,0.0,2.0029,0.0009,389.68,0.22,239.9,29.5,138.04,31.85,24.66,36.54,1.00,-26.19,-25.92,-51,77,-923,26.7,30.4,7.8,26.5,1.4,-30.1,5.73,2.51,-27.3,30.1
2012-08-18 01:48:00,0.0,2.0029,0.0009,389.83,0.25,243.1,31.1,138.04,31.84,24.66,36.54,1.04,-26.19,-26.03,-51,77,-923,26.7,30.4,7.9,26.5,1.4,-30.1,5.73,2.50,-27.3,30.2
2012-08-18 01:49:00,0.0,2.0026,0.0011,389.76,0.27,237.3,30.7,138.04,31.84,24.66,36.54,1.05,-26.20,-26.20,-51,77,-923,26.7,30.4,7.9,26.5,1.4,-30.1,5.73,2.51,-27.3,30.2
2012-08-18 01:50:00,0.0,2.0044,0.0017,389.88,0.29,235.6,31.4,138.04,31.84,24.66,36.54,0.98,-26.21,-25.96,-50,77,-923,26.7,30.5,7.9,26.5,1.4,-30.1,5.73,2.51,-27.3,30.3
2012-08-18 01:51:00,0.0,2.0078,0.0014,390.27,0.29,240.1,30.2,138.04,31.84,24.65,36.54,0.97,-26.22,-26.01,-50,77,-923,26.7,30.5,7.9,26.5,1.4,-30.1,5.73,2.52,-27.3,30.3
2012-08-18 01:52:00,0.0,2.0098,0.0010,390.42,0.30,236.3,30.7,138.04,31.84,24.66,36.55,1.00,-26.22,-26.19,-50,76,-923,26.7,30.5,7.9,26.5,1.4,-30.1,5.73,2.53,-27.3,30.3
2012-08-18 01:53:00,0.0,2.0123,0.0012,390.61,0.28,232.3,33.9,138.04,31.84,24.65,36.55,0.97,-26.23,-26.06,-50,76,-923,26.7,30.5,7.9,26.5,1.4,-30.1,5.73,2.52,-27.3,30.3
2012-08-18 01:54:00,0.0,2.0092,0.0019,390.19,0.36,241.4,29.9,138.04,31.84,24.66,36.54,1.05,-26.24,-25.99,-50,77,-923,26.7,30.5,7.9,26.5,1.4,-30.1,5.73,2.51,-27.3,30.4
2012-08-18 01:55:00,0.0,2.0065,0.0010,389.95,0.29,239.2,26.3,138.04,31.84,24.66,36.54,1.02,-26.24,-26.15,-50,77,-923,26.7,30.4,7.9,26.5,1.4,-30.2,5.73,2.51,-27.3,30.3
2012-08-18 01:56:00,0.0,2.0067,0.0009,389.94,0.27,236.7,27.4,138.04,31.84,24.66,36.54,0.93,-26.26,-26.19,-50,77,-923,26.7,30.5,7.9,26.5,1.4,-30.1,5.73,2.51,-27.3,30.3
2012-08-18 01:57:00,0.0,2.0078,0.0025,390.08,0.35,239.8,28.5,138.04,31.84,24.66,36.54,0.98,-25.73,-25.99,-50,77,-923,26.7,30.5,7.9,26.5,1.4,-30.1,5.73,2.51,-27.3,30.3
2012-08-18 01:58:00,0.0,2.0112,0.0012,390.47,0.35,246.4,29.5,138.04,31.84,24.66,36.54,0.94,-24.02,-26.08,-50,77,-923,26.7,30.5,7.9,26.5,1.4,-30.1,5.73,2.51,-27.1,30.3
2012-08-18 01:59:00,0.0,2.0093,0.0011,390.36,0.32,270.9,33.5,138.04,31.84,24.66,36.54,0.91,-22.08,-26.19,-51,77,-923,26.7,30.5,7.9,26.5,1.6,-29.4,5.73,2.52,-26.7,30.3
2012-08-18 02:00:00,0.0,2.0121,0.0033,390.65,0.45,300.7,25.2,138.04,31.84,24.66,36.54,0.88,-20.16,-26.26,-50,77,-923,26.7,30.6,7.9,26.5,1.7,-28.6,5.73,2.52,-26.3,30.3
2012-08-18 02:01:00,0.0,2.0133,0.0012,390.91,0.31,321.6,31.3,138.04,31.84,24.65,36.53,0.86,-18.32,-26.31,-50,77,-923,26.7,30.6,8.0,26.5,1.8,-28.0,5.73,2.52,-26.0,30.3
2012-08-18 02:02:00,0.0,2.0140,0.0008,390.84,0.36,332.5,29.2,138.04,31.83,24.66,36.55,0.89,-16.57,-26.34,-50,77,-923,26.7,30.7,8.0,26.5,1.8,-27.8,5.73,2.51,-25.8,30.2
2012-08-18 02:03:00,0.0,2.0157,0.0012,391.10,0.33,335.5,28.4,138.04,31.84,24.65,36.54,0.91,-14.91,-26.37,-50,77,-923,26.7,30.7,8.0,26.5,1.8,-27.8,5.73,2.51,-25.8,30.3
2012-08-18 02:04:00,0.0,2.0217,0.0022,391.71,0.31,338.8,31.3,138.04,31.84,24.66,36.55,0.92,-13.34,-26.39,-50,77,-923,26.7,30.8,8.0,26.5,1.8,-27.7,5.73,2.51,-25.8,30.4
2012-08-18 02:05:00,0.0,2.0318,0.0048,392.65,0.53,337.0,31.0,138.04,31.83,24.65,36.54,0.92,-11.85,-26.41,-50,76,-923,26.7,30.9,8.1,26.5,1.8,-27.9,5.73,2.50,-25.8,30.4
2012-08-18 02:06:00,0.0,2.0557,0.0045,395.08,0.51,335.0,29.6,138.04,31.83,24.66,36.55,0.94,-10.44,-26.41,-51,77,-923,26.7,31.0,8.1,26.5,1.7,-28.1,5.73,2.51,-25.8,30.4
2012-08-18 02:07:00,0.0,2.0558,0.0023,395.14,0.33,330.5,27.3,138.04,31.84,24.66,36.54,0.95,-9.10,-26.42,-50,77,-923,26.7,31.0,8.1,26.5,1.7,-28.1,5.73,2.51,-25.9,30.3
2012-08-18 02:08:00,0.0,2.0512,0.0018,394.55,0.32,322.4,28.9,138.04,31.84,24.66,36.54,0.94,-7.83,-26.42,-50,76,-923,26.7,31.1,8.2,26.5,1.7,-28.3,5.73,2.52,-25.9,30.4
2012-08-18 02:09:00,0.0,2.0627,0.0029,395.46,0.33,320.1,29.6,138.04,31.84,24.65,36.54,0.94,-6.63,-26.42,-50,77,-923,26.7,31.1,8.2,26.5,1.7,-28.4,5.73,2.52,-25.9,30.4
2012-08-18 02:10:00,0.0,2.0688,0.0019,396.12,0.29,324.2,29.0,138.04,31.84,24.65,36.54,0.92,-5.49,-26.43,-50,76,-923,26.7,31.2,8.2,26.5,1.7,-28.5,5.73,2.52,-26.0,30.3
2012-08-18 02:11:00,0.0,2.0770,0.0024,396.91,0.36,315.7,29.0,138.04,31.84,24.66,36.54,0.90,-4.41,-26.43,-50,76,-923,26.7,31.3,8.3,26.5,1.7,-28.6,5.73,2.52,-26.1,30.3
2012-08-18 02:12:00,0.0,2.0812,0.0010,397.24,0.30,304.1,29.3,138.04,31.84,24.66,36.53,0.92,-3.37,-26.43,-50,76,-923,26.7,31.4,8.3,26.5,1.6,-28.8,5.73,2.52,-26.1,30.3
2012-08-18 02:13:00,0.0,2.0808,0.0007,397.25,0.37,309.1,31.4,138.04,31.84,24.65,36.54,0.89,-2.39,-26.42,-50,76,-923,26.7,31.4,8.3,26.5,1.6,-28.8,5.73,2.52,-26.2,30.3
2012-08-18 02:14:00,0.0,2.0798,0.0009,397.12,0.22,305.8,25.1,138.04,31.84,24.66,36.54,0.92,-1.47,-26.42,-50,76,-923,26.7,31.5,8.4,26.5,1.6,-29.0,5.73,2.51,-26.2,30.3
2012-08-18 02:15:00,0.0,2.0825,0.0013,397.19,0.26,302.3,32.0,138.04,31.84,24.66,36.53,0.89,-0.59,-26.41,-50,76,-923,26.7,31.5,8.4,26.5,1.6,-29.0,5.73,2.51,-26.3,30.3
2012-08-18 02:16:00,0.0,2.0852,0.0011,397.35,0.26,298.2,28.1,138.04,31.84,24.66,36.54,0.93,0.25,-26.41,-50,76,-923,26.7,31.6,8.4,26.5,1.6,-29.1,5.73,2.51,-26.4,30.4
2012-08-18 02:17:00,0.0,2.0906,0.0032,397.66,0.33,290.0,32.6,138.04,31.84,24.66,36.54,0.92,1.03,-26.40,-50,76,-923,26.7,31.7,8.4,26.5,1.6,-29.1,5.73,2.51,-26.4,30.4
2012-08-18 02:18:00,0.0,2.0940,0.0010,397.91,0.29,289.2,25.8,138.04,31.84,24.66,36.53,0.93,1.78,-26.39,-51,76,-923,26.7,31.7,8.4,26.5,1.6,-29.2,5.73,2.51,-26.4,30.4
2012-08-18 02:19:00,0.0,2.0874,0.0020,397.74,0.32,290.7,24.1,138.04,31.84,24.66,36.54,0.93,2.44,-26.38,-51,76,-923,26.7,31.8,8.5,26.5,1.6,-29.3,5.73,2.51,-26.5,30.4
2012-08-18 02:20:00,0.0,2.0817,0.0020,397.27,0.31,280.3,30.1,138.04,31.84,24.66,36.54,0.94,2.84,-26.37,-50,76,-923,26.7,31.8,8.5,26.5,1.6,-29.4,5.73,2.51,-26.5,30.4